GPDGR EFHK-EFPT

Flight info

Callsign GPDGR
Flight time 0h 46m
Altitude 5
Route /
Aircraft AS50/L-SDFY/EB1

Departure

Time 2026-04-24 15:00
Airport Helsinki Vantaa Airport (EFHK)

Arrival

Time 2026-04-24 15:46
Airport Tampere University Hospital Heliport (EFPT)
Time Latitude Longitude Altitude Speed Heading
2026-04-24 14:58 60.22068 24.68597 82 ft 0 kts 11°
2026-04-24 14:59 60.22068 24.68594 96 ft 3 kts 359°
2026-04-24 14:59 60.22134 24.68582 230 ft 27 kts 19°
2026-04-24 15:00 60.22418 24.68905 483 ft 68 kts 34°
2026-04-24 15:00 60.22794 24.69767 638 ft 94 kts 40°
2026-04-24 15:00 60.23235 24.70770 855 ft 99 kts 39°
2026-04-24 15:00 60.23763 24.71699 977 ft 104 kts 28°
2026-04-24 15:01 60.24423 24.72317 1057 ft 106 kts 15°
2026-04-24 15:01 60.25105 24.72965 1044 ft 116 kts 34°
2026-04-24 15:01 60.25737 24.74023 1035 ft 115 kts 36°
2026-04-24 15:01 60.26285 24.75153 1040 ft 117 kts 44°
2026-04-24 15:02 60.26750 24.76541 971 ft 119 kts 53°
2026-04-24 15:02 60.27132 24.78054 906 ft 123 kts 62°
2026-04-24 15:02 60.27442 24.79671 831 ft 123 kts 63°
2026-04-24 15:02 60.27829 24.81021 1025 ft 104 kts 49°
2026-04-24 15:03 60.28151 24.81672 1101 ft 100 kts 31°
2026-04-24 15:03 60.29018 24.82430 1096 ft 105 kts 13°
2026-04-24 15:03 60.29726 24.82880 1077 ft 107 kts 15°
2026-04-24 15:03 60.30485 24.83219 1004 ft 108 kts
2026-04-24 15:04 60.31207 24.83274 1122 ft 97 kts 357°
2026-04-24 15:04 60.31908 24.83051 1099 ft 102 kts 349°
2026-04-24 15:04 60.32587 24.82722 1130 ft 104 kts 345°
2026-04-24 15:04 60.33319 24.82329 996 ft 112 kts 346°
2026-04-24 15:05 60.34062 24.81936 956 ft 108 kts 346°
2026-04-24 15:05 60.34802 24.81606 934 ft 105 kts 347°
2026-04-24 15:05 60.35529 24.81388 940 ft 107 kts 352°
2026-04-24 15:05 60.36303 24.81441 883 ft 114 kts
2026-04-24 15:06 60.37106 24.81525 777 ft 118 kts
2026-04-24 15:06 60.37935 24.81601 755 ft 119 kts
2026-04-24 15:06 60.38756 24.81710 783 ft 117 kts
2026-04-24 15:06 60.39571 24.81847 802 ft 117 kts
2026-04-24 15:07 60.40378 24.82118 791 ft 119 kts
2026-04-24 15:07 60.41191 24.82464 746 ft 119 kts 11°
2026-04-24 15:07 60.42005 24.82842 711 ft 119 kts 12°
2026-04-24 15:07 60.42820 24.83218 729 ft 121 kts 11°
2026-04-24 15:08 60.43644 24.83660 735 ft 122 kts 14°
2026-04-24 15:08 60.44451 24.84125 744 ft 123 kts 12°
2026-04-24 15:08 60.45289 24.84555 725 ft 123 kts 11°
2026-04-24 15:08 60.46116 24.84967 743 ft 122 kts 10°
2026-04-24 15:09 60.46947 24.85138 817 ft 119 kts
2026-04-24 15:09 60.47781 24.85090 790 ft 123 kts 359°
2026-04-24 15:09 60.48640 24.85160 739 ft 124 kts
2026-04-24 15:09 60.49458 24.85031 801 ft 120 kts 339°
2026-04-24 15:10 60.50228 24.84327 776 ft 123 kts 348°
2026-04-24 15:10 60.51083 24.84402 824 ft 121 kts
2026-04-24 15:10 60.51893 24.84606 945 ft 117 kts
2026-04-24 15:10 60.52707 24.84524 1009 ft 119 kts 353°
2026-04-24 15:11 60.53263 24.84410 1045 ft 119 kts 353°
2026-04-24 15:11 60.54357 24.84083 1107 ft 119 kts 351°
2026-04-24 15:11 60.54896 24.83892 1115 ft 121 kts 349°
2026-04-24 15:11 60.55935 24.82984 1070 ft 125 kts 335°
2026-04-24 15:12 60.56722 24.82190 987 ft 128 kts 336°
2026-04-24 15:12 60.58265 24.80424 872 ft 128 kts 331°
2026-04-24 15:12 60.59076 24.79718 894 ft 124 kts 342°
2026-04-24 15:13 60.59628 24.79558 984 ft 119 kts 357°
2026-04-24 15:13 60.60766 24.79663 1011 ft 122 kts
2026-04-24 15:13 60.61566 24.79662 1283 ft 110 kts 356°
2026-04-24 15:13 60.62312 24.79569 1493 ft 108 kts 355°
2026-04-24 15:14 60.63102 24.79410 1523 ft 117 kts 353°
2026-04-24 15:14 60.63936 24.79151 1489 ft 121 kts 347°
2026-04-24 15:14 60.64753 24.78691 1430 ft 124 kts 345°
2026-04-24 15:14 60.65559 24.78263 1552 ft 117 kts 347°
2026-04-24 15:15 60.66088 24.77958 1541 ft 120 kts 345°
2026-04-24 15:15 60.66895 24.77392 1554 ft 122 kts 339°
2026-04-24 15:15 60.67878 24.76257 1544 ft 123 kts 331°
2026-04-24 15:15 60.68630 24.75281 1407 ft 130 kts 329°
2026-04-24 15:16 60.69331 24.74275 1516 ft 122 kts 316°
2026-04-24 15:16 60.69830 24.72849 1530 ft 123 kts 315°
2026-04-24 15:16 60.70567 24.72094 1536 ft 123 kts 351°
2026-04-24 15:16 60.71421 24.71981 1515 ft 125 kts 356°
2026-04-24 15:17 60.72290 24.71985 1523 ft 124 kts
2026-04-24 15:17 60.73138 24.72235 1508 ft 125 kts
2026-04-24 15:17 60.73993 24.72417 1518 ft 122 kts 358°
2026-04-24 15:17 60.74831 24.72252 1547 ft 121 kts 353°
2026-04-24 15:18 60.75661 24.71938 1576 ft 120 kts 348°
2026-04-24 15:18 60.76474 24.71599 1555 ft 124 kts 347°
2026-04-24 15:18 60.77292 24.71039 1561 ft 122 kts 339°
2026-04-24 15:18 60.78084 24.70384 1588 ft 120 kts 347°
2026-04-24 15:19 60.78888 24.70085 1660 ft 118 kts 348°
2026-04-24 15:19 60.79643 24.69559 1813 ft 114 kts 338°
2026-04-24 15:19 60.80381 24.68860 1811 ft 120 kts 336°
2026-04-24 15:19 60.81124 24.68076 1826 ft 121 kts 334°
2026-04-24 15:20 60.81884 24.67370 2005 ft 108 kts 344°
2026-04-24 15:20 60.82598 24.66707 1962 ft 119 kts 331°
2026-04-24 15:20 60.83289 24.65817 2070 ft 115 kts 329°
2026-04-24 15:20 60.83941 24.64718 1988 ft 124 kts 327°
2026-04-24 15:21 60.84647 24.63658 1926 ft 123 kts 326°
2026-04-24 15:21 60.85310 24.62608 1946 ft 122 kts 324°
2026-04-24 15:21 60.85950 24.61449 1915 ft 123 kts 321°
2026-04-24 15:21 60.86592 24.60284 1880 ft 124 kts 322°
2026-04-24 15:22 60.87020 24.59488 1837 ft 126 kts 321°
2026-04-24 15:22 60.87972 24.58134 1801 ft 122 kts 333°
2026-04-24 15:22 60.88714 24.57336 1908 ft 116 kts 333°
2026-04-24 15:23 60.90194 24.56009 2059 ft 112 kts 341°
2026-04-24 15:23 60.91601 24.54745 2300 ft 117 kts 334°
2026-04-24 15:23 60.92328 24.53901 2290 ft 117 kts 333°
2026-04-24 15:24 60.94448 24.51483 2481 ft 117 kts 325°
2026-04-24 15:25 60.95571 24.50001 2749 ft 108 kts 327°
2026-04-24 15:25 60.96923 24.47360 2889 ft 117 kts 319°
2026-04-24 15:26 60.98577 24.43519 2970 ft 121 kts 320°
2026-04-24 15:27 61.00337 24.40671 2990 ft 121 kts 326°
2026-04-24 15:27 61.02368 24.37397 2812 ft 125 kts 308°
2026-04-24 15:28 61.04361 24.31281 2480 ft 125 kts 304°
2026-04-24 15:29 61.05278 24.28220 2440 ft 127 kts 303°
2026-04-24 15:30 61.06894 24.23321 2475 ft 123 kts 311°
2026-04-24 15:31 61.08820 24.17805 2398 ft 125 kts 313°
2026-04-24 15:32 61.10909 24.12116 3372 ft 112 kts 311°
2026-04-24 15:33 61.12561 24.07119 4113 ft 116 kts 306°
2026-04-24 15:33 61.14016 24.03082 4666 ft 114 kts 309°
2026-04-24 15:34 61.14830 24.00344 5228 ft 99 kts 301°
2026-04-24 15:35 61.16119 23.96492 5594 ft 132 kts 313°
2026-04-24 15:35 61.17222 23.94465 5892 ft 107 kts 320°
2026-04-24 15:35 61.17967 23.93175 5861 ft 124 kts 319°
2026-04-24 15:36 61.18599 23.91929 5768 ft 130 kts 316°
2026-04-24 15:36 61.20032 23.89452 5435 ft 132 kts 329°
2026-04-24 15:36 61.20807 23.88492 5430 ft 129 kts 329°
2026-04-24 15:37 61.21307 23.87817 5372 ft 130 kts 327°
2026-04-24 15:37 61.22222 23.86318 5583 ft 117 kts 320°
2026-04-24 15:37 61.22621 23.85563 5742 ft 113 kts 318°
2026-04-24 15:37 61.23486 23.84465 6050 ft 114 kts 345°
2026-04-24 15:38 61.24343 23.84266 5925 ft 132 kts 349°
2026-04-24 15:38 61.24983 23.84110 5707 ft 137 kts 350°
2026-04-24 15:38 61.26234 23.83497 5324 ft 131 kts 343°
2026-04-24 15:38 61.27123 23.83250 5162 ft 128 kts 353°
2026-04-24 15:39 61.28020 23.82798 4682 ft 142 kts 345°
2026-04-24 15:39 61.28950 23.82234 4356 ft 137 kts 343°
2026-04-24 15:39 61.29850 23.81718 4123 ft 132 kts 348°
2026-04-24 15:39 61.30777 23.81429 3779 ft 135 kts 351°
2026-04-24 15:40 61.31385 23.81183 3640 ft 131 kts 345°
2026-04-24 15:40 61.32207 23.80548 3593 ft 123 kts 339°
2026-04-24 15:40 61.33347 23.79753 3148 ft 133 kts 345°
2026-04-24 15:40 61.34230 23.79235 2900 ft 131 kts 345°
2026-04-24 15:41 61.35122 23.78763 2718 ft 127 kts 348°
2026-04-24 15:41 61.35998 23.78505 2573 ft 128 kts 354°
2026-04-24 15:41 61.36570 23.78480 2610 ft 121 kts 359°
2026-04-24 15:41 61.37027 23.78486 2614 ft 120 kts 359°
2026-04-24 15:42 61.37680 23.78423 2756 ft 112 kts 354°
2026-04-24 15:42 61.38453 23.78205 2801 ft 117 kts 348°
2026-04-24 15:42 61.39275 23.77949 2848 ft 115 kts 350°
2026-04-24 15:42 61.40345 23.77737 2885 ft 119 kts 356°
2026-04-24 15:43 61.41166 23.77713 2947 ft 116 kts 359°
2026-04-24 15:43 61.41999 23.77724 2849 ft 126 kts 358°
2026-04-24 15:43 61.42916 23.77863 2647 ft 127 kts
2026-04-24 15:43 61.43797 23.78194 2459 ft 134 kts 10°
2026-04-24 15:44 61.44687 23.78637 2299 ft 129 kts 11°
2026-04-24 15:44 61.45275 23.78937 2225 ft 126 kts 11°
2026-04-24 15:44 61.46307 23.79501 2122 ft 117 kts 14°
2026-04-24 15:44 61.47056 23.79954 1929 ft 114 kts 14°
2026-04-24 15:45 61.47799 23.80399 1681 ft 114 kts 15°
2026-04-24 15:45 61.48554 23.80861 1341 ft 116 kts 16°
2026-04-24 15:45 61.49043 23.81185 1179 ft 112 kts 17°
2026-04-24 15:45 61.49777 23.82015 899 ft 100 kts 32°
2026-04-24 15:46 61.50131 23.82536 893 ft 80 kts 17°
2026-04-24 15:46 61.50454 23.81811 910 ft 70 kts 284°
2026-04-24 15:46 61.50494 23.80905 898 ft 44 kts 344°
2026-04-24 15:46 61.50621 23.80918 732 ft 36 kts 86°
2026-04-24 15:47 61.50650 23.81142 575 ft 30 kts 70°
2026-04-24 15:47 61.50799 23.80714 502 ft 51 kts 270°
2026-04-24 15:47 61.50667 23.80794 643 ft 37 kts 67°